Wind_Speed
56 47 52 48 44 44 46 43 40 41 40 38 39 34 32 32 31 31 29 28 27 28 26 22 20 21 19 18 17 17 15 15 15 14 12 13 14 15 15 15 15 24 21
57 50 50 45 46 42 43 43 39 38 34 34 35 30 29 29 29 29 27 27 26 27 22 19 20 20 19 19 18 17 16 14 15 16 14 14 15 15 17 21 21 26 22
49 50 49 43 43 41 40 37 37 31 31 33 29 27 28 26 28 27 27 26 26 24 20 19 20 20 19 20 19 18 17 16 18 17 15 14 13 12 10 24 26 24 23
49 52 47 47 46 39 36 35 34 31 28 27 25 24 25 28 26 25 25 25 25 20 19 20 20 21 22 22 20 20 22 21 21 20 16 15 16 14 14 17 22 23 21
51 51 48 46 41 37 34 33 31 26 27 27 23 24 27 24 24 23 24 23 21 18 18 19 21 23 24 24 25 25 25 23 23 21 18 15 19 18 19 19 22 24 24
51 49 50 44 39 35 34 32 29 29 28 25 24 24 24 22 22 22 21 20 18 16 17 18 21 23 24 23 27 25 22 24 25 22 21 17 20 22 20 19 22 22 23
46 45 43 40 36 35 32 32 31 29 27 26 25 24 21 19 19 19 20 20 16 17 16 19 21 22 22 22 19 17 15 22 28 23 20 17 18 22 23 21 22 24 24
40 40 37 36 35 33 33 33 31 29 28 27 24 20 19 18 16 17 18 18 17 16 17 19 20 14 9 15 11 11 15 24 22 21 20 19 18 21 21 20 23 25 23
42 39 37 35 35 36 34 32 31 28 26 25 21 19 18 15 16 16 18 16 14 14 15 18 12 6 6 1 5 8 5 18 20 21 19 20 21 23 23 21 19 20 22
44 42 39 40 36 34 32 28 29 27 24 20 19 18 16 16 16 17 16 14 12 11 14 12 8 5 5 3 3 4 7 8 11 16 16 19 21 23 22 23 23 23 24
43 42 41 34 35 35 30 28 25 23 21 18 17 17 16 15 15 16 13 12 9 9 11 6 5 5 6 6 5 6 6 6 8 12 15 17 19 22 22 23 25 25 23
49 45 41 36 33 30 27 23 21 19 17 17 17 16 17 16 16 17 14 10 9 7 9 6 5 7 4 5 6 7 8 7 6 6 11 16 19 21 24 23 25 24 25
38 47 40 35 30 27 23 21 19 18 18 16 16 16 16 17 19 17 16 11 11 7 6 6 6 7 5 7 8 8 8 8 7 7 8 16 21 23 24 25 22 22 21
45 42 36 31 27 23 21 18 18 18 17 15 15 16 16 18 19 16 15 12 12 9 7 4 6 7 7 7 7 9 9 9 6 6 10 9 17 22 23 25 23 23 20
41 37 33 29 26 23 20 18 16 15 15 14 14 13 14 17 19 17 16 15 13 10 9 6 6 9 9 9 10 9 10 11 7 5 9 11 12 20 21 24 21 21 22
38 33 29 27 23 20 18 17 16 16 13 11 9 8 8 8 11 15 16 16 13 12 11 8 6 9 10 12 14 12 11 13 9 8 7 12 13 17 21 18 22 18 22
37 31 25 23 21 20 17 16 15 13 13 10 9 8 5 5 8 11 14 14 12 12 13 10 8 9 10 12 13 12 11 14 12 10 10 12 14 16 15 17 18 18 18
32 28 25 23 21 17 15 13 12 13 13 11 10 7 5 6 9 12 13 13 12 11 12 10 9 9 12 12 12 12 13 14 12 11 12 13 15 16 16 16 17 17 16
32 27 24 22 18 14 11 9 9 11 11 11 9 6 5 7 9 11 11 11 12 13 12 10 9 8 11 12 12 12 11 11 12 12 12 13 14 16 17 18 19 19 19
29 26 23 20 15 11 8 9 11 13 13 11 8 5 5 7 9 10 10 12 13 13 12 12 9 8 10 12 11 12 12 12 12 12 12 13 14 16 19 21 21 21 21
27 25 21 16 14 11 11 13 13 12 11 9 7 5 4 7 8 8 11 12 12 11 10 9 9 7 7 9 11 12 11 11 11 11 11 12 12 14 15 16 18 19 18
27 23 19 16 15 13 14 14 12 10 10 9 8 8 8 9 10 10 11 11 10 11 11 11 11 9 9 9 9 10 12 12 11 12 14 14 13 12 11 13 16 15 16
25 22 18 16 15 13 13 14 12 11 10 10 11 11 10 10 11 12 13 13 12 12 13 13 12 11 9 10 10 10 10 10 10 11 11 11 12 11 11 12 13 13 12
23 22 19 17 15 12 14 16 13 10 10 11 11 10 11 11 11 12 12 10 9 10 10 9 8 7 7 8 8 8 9 10 10 11 10 11 11 10 10 10 11 12 15
23 20 16 15 14 12 12 14 14 14 13 12 12 11 10 9 9 9 9 8 7 7 7 7 7 7 7 7 7 7 8 8 10 11 11 11 12 12 12 13 15 17 19
22 17 14 14 15 14 12 14 15 15 16 15 13 11 10 9 7 6 7 7 6 4 2 2 2 2 2 3 4 5 6 7 8 10 11 12 14 15 18 20 22 23 25
Wind_Direction
236 238 239 235 236 237 237 244 252 262 259 249 250 257 267 268 274 277 278 280 289 295 292 282 279 286 281 285 285 288 287 282 275 260 246 233 219 220 220 222 214 205 203
229 230 233 227 230 233 237 244 257 256 249 246 251 255 257 263 271 272 275 282 293 294 285 275 284 280 272 278 282 281 275 277 266 253 245 230 223 217 232 232 215 198 197
223 228 228 227 227 233 237 244 243 244 247 249 244 245 252 263 269 270 277 287 291 289 276 280 282 273 272 278 284 279 273 278 258 245 238 222 218 211 215 191 187 191 200
220 226 223 225 226 233 236 236 238 239 240 234 237 245 257 263 263 271 281 285 287 280 278 284 277 279 281 280 280 274 272 269 247 231 231 223 200 199 180 186 194 196 200
219 221 218 220 221 227 231 233 231 229 228 229 230 243 256 257 263 274 277 281 285 274 280 282 284 284 283 281 280 278 270 256 231 223 223 214 198 195 185 190 196 200 202
215 207 212 215 219 222 225 226 222 221 228 229 237 250 249 254 265 275 280 282 273 273 279 288 292 289 286 285 285 277 266 233 215 220 225 205 200 200 202 197 196 201 207
205 204 201 206 212 216 219 220 217 222 224 232 242 240 244 255 269 274 276 279 269 273 287 291 296 293 291 287 277 266 242 214 205 213 220 218 206 202 202 203 204 200 203
204 198 197 202 207 209 210 214 219 219 225 235 230 235 244 256 266 273 278 273 267 277 286 298 305 301 299 292 264 229 230 196 199 201 220 218 209 205 205 205 200 202 202
200 190 193 199 202 205 205 212 218 223 227 221 227 232 243 259 259 273 275 272 269 277 291 307 300 287 284 303 187 176 160 180 188 208 208 214 208 200 198 199 196 199 197
192 189 188 196 194 203 208 210 216 214 213 222 229 237 245 253 259 273 270 265 263 275 302 305 293 265 228 254 204 190 173 181 198 197 212 209 209 202 197 199 199 199 198
185 185 190 178 185 199 206 209 205 207 217 223 235 244 246 252 260 270 259 263 254 280 301 283 284 209 222 179 178 167 176 176 196 201 207 211 209 203 199 203 201 199 201
177 179 177 186 192 196 200 196 202 212 219 230 239 245 247 249 260 263 253 248 238 269 298 268 249 221 229 189 186 175 168 167 176 206 213 211 212 206 203 205 208 204 204
165 162 176 182 187 189 189 194 204 213 225 237 242 244 246 251 258 256 245 228 227 243 269 250 219 218 223 198 193 181 195 216 232 251 224 216 212 203 206 207 209 211 213
153 161 172 176 177 183 188 195 206 219 231 235 242 251 253 248 246 238 229 215 217 226 232 237 209 213 211 202 198 188 184 189 200 198 204 205 203 200 202 203 204 204 208
156 161 165 168 173 182 190 198 213 224 224 236 246 247 243 239 239 230 215 208 211 224 224 221 216 202 204 196 197 192 196 189 193 161 165 180 189 190 194 206 205 209 205
154 157 163 169 174 182 190 205 219 221 226 229 230 231 229 238 228 211 202 205 211 222 221 221 227 212 197 200 195 201 198 186 189 194 170 179 174 182 189 185 203 212 209
157 159 163 172 180 182 194 210 215 221 213 221 213 200 213 209 197 193 202 213 221 224 220 220 226 216 199 203 203 202 201 196 188 190 187 169 171 180 178 184 193 201 212
155 158 172 176 177 186 197 209 219 218 214 210 203 207 227 236 225 223 223 226 223 217 215 219 216 211 196 197 196 194 188 192 197 199 194 194 194 195 200 204 204 206 212
161 164 171 171 179 184 191 212 210 200 184 181 180 192 218 224 216 210 213 215 210 208 205 208 206 202 200 202 196 193 197 199 200 203 206 208 211 216 222 224 225 227 234
166 162 169 170 170 171 180 167 158 156 157 160 162 173 204 198 199 200 201 191 190 191 192 187 191 202 209 206 204 206 205 206 205 208 214 222 228 232 233 234 234 236 240
161 162 166 162 163 161 154 152 150 151 156 162 155 155 163 165 162 172 171 172 169 166 164 175 187 198 209 204 210 215 219 220 219 215 218 224 235 234 233 237 232 226 231
159 160 162 165 161 152 153 150 151 159 162 152 140 132 129 147 153 161 170 173 172 166 164 174 182 185 183 193 205 215 222 227 227 229 231 234 235 228 224 229 232 233 239
157 158 163 168 163 152 157 158 160 160 153 154 160 166 157 147 153 164 164 162 167 170 174 179 182 185 184 188 188 194 205 210 215 221 221 222 229 235 237 240 241 241 244
162 159 167 168 165 160 159 154 155 160 166 176 166 167 172 168 161 151 139 143 162 175 187 194 200 208 208 202 199 198 205 204 198 217 230 217 210 211 214 216 223 236 245
167 160 168 162 170 167 167 165 167 162 167 175 171 167 162 165 164 164 152 144 148 149 149 149 156 162 161 163 176 188 195 205 215 220 227 230 234 232 237 241 249 256 260
162 156 165 170 178 175 175 184 187 182 186 186 182 181 173 169 172 181 183 171 163 151 140 150 157 174 197 205 221 234 245 250 252 254 257 257 261 266 269 271 272 274 275
Height
5704 5710 5718 5726 5729 5731 5734 5735 5737 5740 5741 5740 5744 5747 5747 5748 5747 5747 5746 5743 5740 5737 5736 5734 5731 5730 5728 5727 5725 5723 5723 5721 5721 5721 5722 5723 5723 5723 5725 5727 5729 5733 5736
5693 5702 5708 5715 5718 5720 5723 5727 5730 5731 5730 5733 5738 5739 5739 5741 5741 5741 5738 5736 5733 5732 5730 5728 5726 5724 5722 5721 5720 5719 5718 5718 5718 5718 5718 5720 5721 5721 5722 5724 5725 5731 5735
5680 5689 5697 5703 5707 5711 5716 5719 5721 5721 5724 5728 5731 5732 5733 5734 5735 5733 5731 5729 5727 5726 5723 5721 5719 5718 5717 5715 5714 5713 5713 5713 5714 5714 5715 5717 5718 5719 5718 5718 5725 5729 5733
5668 5677 5685 5690 5698 5704 5707 5710 5712 5714 5717 5721 5724 5726 5727 5728 5728 5726 5724 5723 5722 5720 5717 5715 5713 5711 5710 5709 5708 5707 5706 5706 5708 5710 5712 5714 5715 5718 5718 5721 5726 5730 5733
5657 5664 5672 5681 5688 5694 5698 5700 5704 5709 5713 5716 5718 5720 5722 5722 5721 5720 5719 5717 5715 5713 5711 5710 5708 5705 5704 5702 5700 5699 5698 5699 5701 5704 5708 5711 5713 5715 5718 5720 5724 5728 5731
5645 5653 5662 5671 5679 5686 5690 5694 5700 5703 5707 5711 5712 5715 5715 5715 5715 5714 5713 5711 5710 5708 5707 5704 5702 5699 5696 5693 5691 5690 5689 5691 5696 5700 5704 5708 5710 5712 5716 5719 5722 5725 5729
5636 5644 5653 5663 5672 5678 5684 5690 5695 5699 5702 5705 5707 5709 5709 5709 5708 5708 5707 5706 5705 5703 5701 5699 5696 5692 5688 5685 5683 5683 5683 5686 5691 5697 5701 5704 5707 5709 5713 5716 5719 5722 5725
5633 5642 5651 5659 5665 5672 5680 5685 5689 5694 5697 5700 5702 5702 5703 5703 5703 5703 5702 5701 5699 5698 5696 5694 5690 5686 5683 5680 5678 5680 5682 5684 5689 5694 5698 5701 5703 5707 5711 5714 5716 5720 5724
5628 5637 5645 5653 5661 5668 5676 5681 5686 5689 5691 5695 5696 5697 5697 5697 5697 5698 5697 5696 5694 5693 5692 5689 5686 5684 5682 5680 5679 5681 5680 5681 5687 5691 5695 5698 5701 5704 5708 5713 5717 5721 5725
5621 5631 5639 5647 5657 5664 5671 5677 5681 5684 5686 5689 5691 5692 5691 5692 5693 5693 5691 5691 5690 5690 5688 5685 5683 5682 5682 5681 5681 5682 5683 5684 5687 5690 5694 5697 5699 5703 5707 5710 5715 5719 5722
5617 5625 5632 5641 5653 5661 5667 5672 5676 5678 5681 5684 5685 5686 5687 5687 5688 5688 5687 5686 5686 5686 5685 5683 5682 5682 5682 5682 5683 5684 5685 5686 5688 5690 5692 5695 5698 5702 5705 5709 5713 5717 5721
5604 5612 5630 5641 5650 5657 5663 5667 5670 5673 5676 5678 5680 5681 5681 5682 5682 5683 5682 5682 5683 5683 5682 5682 5681 5681 5682 5683 5683 5684 5686 5687 5688 5689 5691 5693 5696 5700 5704 5708 5711 5715 5718
5581 5611 5629 5638 5646 5654 5659 5663 5666 5669 5671 5673 5675 5676 5676 5676 5677 5677 5678 5679 5679 5680 5680 5680 5680 5680 5681 5682 5683 5685 5686 5687 5688 5688 5688 5690 5693 5697 5701 5706 5710 5714 5717
5600 5614 5627 5637 5644 5650 5656 5659 5663 5665 5667 5669 5670 5670 5670 5670 5671 5672 5673 5674 5676 5677 5678 5678 5678 5679 5680 5682 5683 5684 5685 5686 5687 5687 5688 5689 5690 5695 5699 5704 5708 5712 5716
5605 5616 5626 5634 5641 5648 5652 5656 5659 5662 5664 5664 5665 5665 5665 5665 5665 5667 5669 5671 5673 5674 5675 5676 5676 5678 5679 5680 5682 5683 5684 5686 5687 5688 5689 5689 5691 5695 5698 5703 5706 5710 5713
5607 5617 5625 5633 5638 5644 5649 5654 5657 5659 5660 5660 5661 5662 5661 5660 5661 5663 5666 5668 5670 5672 5673 5674 5675 5676 5678 5678 5680 5682 5684 5686 5687 5689 5690 5691 5692 5695 5698 5701 5705 5708 5711
5610 5618 5626 5632 5638 5643 5648 5652 5654 5655 5655 5656 5658 5659 5659 5660 5661 5662 5664 5666 5668 5670 5671 5672 5673 5674 5676 5677 5679 5681 5683 5685 5687 5688 5690 5692 5694 5696 5699 5701 5704 5706 5709
5611 5618 5627 5633 5638 5642 5646 5648 5649 5651 5653 5654 5656 5657 5658 5659 5660 5661 5662 5664 5666 5668 5670 5671 5672 5673 5674 5676 5678 5680 5682 5684 5687 5688 5690 5692 5694 5696 5698 5700 5702 5705 5707
5614 5620 5628 5634 5638 5641 5643 5645 5646 5648 5649 5652 5654 5655 5656 5656 5657 5659 5660 5662 5664 5666 5668 5670 5671 5672 5674 5676 5677 5679 5682 5684 5686 5688 5690 5691 5693 5695 5697 5699 5701 5703 5705
5616 5622 5629 5633 5636 5639 5641 5643 5645 5646 5648 5650 5652 5653 5654 5655 5656 5657 5658 5660 5662 5665 5668 5669 5671 5672 5673 5675 5677 5679 5681 5683 5685 5687 5688 5690 5691 5692 5694 5695 5697 5699 5700
5616 5623 5628 5632 5635 5638 5640 5643 5644 5646 5649 5651 5652 5654 5655 5655 5656 5658 5659 5662 5664 5666 5667 5669 5670 5672 5673 5675 5677 5678 5680 5682 5684 5686 5687 5689 5689 5690 5691 5692 5693 5695 5697
5616 5623 5627 5632 5635 5637 5640 5642 5645 5647 5650 5652 5653 5654 5654 5655 5656 5658 5660 5661 5663 5664 5665 5667 5669 5671 5672 5674 5676 5677 5679 5681 5683 5684 5685 5687 5687 5688 5688 5690 5692 5693 5694
5616 5622 5628 5632 5635 5637 5639 5643 5646 5649 5651 5652 5653 5654 5655 5655 5656 5658 5659 5661 5662 5664 5665 5667 5669 5671 5672 5673 5674 5676 5678 5679 5681 5682 5683 5685 5686 5687 5688 5689 5690 5692 5693
5618 5622 5627 5631 5635 5638 5641 5644 5648 5650 5651 5653 5654 5655 5656 5657 5658 5659 5660 5662 5663 5665 5666 5668 5669 5671 5672 5673 5675 5676 5678 5679 5681 5682 5682 5683 5684 5684 5686 5687 5688 5689 5689
5620 5622 5626 5630 5635 5639 5644 5646 5648 5649 5652 5654 5655 5656 5657 5659 5661 5662 5663 5664 5665 5667 5668 5669 5671 5671 5672 5674 5675 5676 5677 5679 5680 5681 5682 5683 5683 5684 5685 5686 5687 5687 5686
5620 5622 5626 5632 5635 5638 5643 5645 5647 5649 5651 5653 5655 5657 5659 5660 5662 5664 5665 5666 5667 5668 5669 5671 5672 5673 5674 5675 5676 5677 5678 5679 5680 5681 5682 5683 5683 5683 5683 5683 5683 5682 5682